• In Russia
  • List of Countries
  • For 7 days
  • Water Temperature
  • Weather Map
  • Weather Widgets
  • user-avatar
    Login

    Hourly Weather Kanye

    Today, 28 May, Thursday

    Time Temperature Precipitation Wind Pressure Humidity
    00:00 +6°C° 0 mm 1 mps 652 mmHg 29%
    01:00 +6°C° 0 mm 1 mps 652 mmHg 29%
    02:00 +5°C° 0 mm 1 mps 652 mmHg 30%
    03:00 +5°C° 0 mm 1 mps 652 mmHg 30%
    04:00 +5°C° 0 mm 1 mps 652 mmHg 31%
    05:00 +4°C° 0 mm 1 mps 652 mmHg 32%
    06:00 +5°C° 0 mm 1 mps 652 mmHg 30%
    07:00 +7°C° 0 mm 1 mps 653 mmHg 28%
    08:00 +8°C° 0 mm 1 mps 653 mmHg 26%
    09:00 +10°C° 0 mm 1 mps 654 mmHg 22%
    10:00 +13°C° 0 mm 1 mps 655 mmHg 18%
    11:00 +16°C° 0 mm 1 mps 656 mmHg 14%
    12:00 +18°C° 0 mm 1 mps 655 mmHg 12%
    13:00 +19°C° 0 mm 1 mps 655 mmHg 11%
    14:00 +20°C° 0 mm 2 mps 654 mmHg 9%
    15:00 +19°C° 0 mm 2 mps 654 mmHg 10%
    16:00 +18°C° 0 mm 2 mps 653 mmHg 11%
    17:00 +18°C° 0 mm 2 mps 653 mmHg 12%
    18:00 +15°C° 0 mm 1 mps 652 mmHg 15%
    19:00 +13°C° 0 mm 1 mps 652 mmHg 17%
    20:00 +10°C° 0 mm 1 mps 651 mmHg 19%
    21:00 +10°C° 0 mm 1 mps 651 mmHg 20%
    22:00 +9°C° 0 mm 1 mps 651 mmHg 20%
    23:00 +9°C° 0 mm 1 mps 652 mmHg 21%

    Tomorrow, 29 May, Friday

    Time Temperature Precipitation Wind Pressure Humidity
    00:00 +8°C° 0 mm 1 mps 651 mmHg 21%
    01:00 +8°C° 0 mm 1 mps 651 mmHg 21%
    02:00 +8°C° 0 mm 1 mps 651 mmHg 22%
    03:00 +8°C° 0 mm 1 mps 651 mmHg 22%
    04:00 +7°C° 0 mm 1 mps 651 mmHg 22%
    05:00 +7°C° 0 mm 1 mps 651 mmHg 23%
    06:00 +8°C° 0 mm 1 mps 651 mmHg 22%
    07:00 +10°C° 0 mm 1 mps 652 mmHg 21%
    08:00 +11°C° 0 mm 1 mps 653 mmHg 20%
    09:00 +14°C° 0 mm 2 mps 654 mmHg 17%
    10:00 +16°C° 0 mm 2 mps 654 mmHg 14%
    11:00 +19°C° 0 mm 2 mps 655 mmHg 12%
    12:00 +20°C° 0 mm 2 mps 655 mmHg 12%
    13:00 +21°C° 0 mm 2 mps 654 mmHg 12%
    14:00 +24°C° 0 mm 3 mps 654 mmHg 12%
    15:00 +23°C° 0 mm 2 mps 653 mmHg 13%
    16:00 +21°C° 0 mm 2 mps 653 mmHg 15%
    17:00 +20°C° 0 mm 2 mps 653 mmHg 17%
    18:00 +18°C° 0 mm 2 mps 653 mmHg 19%
    19:00 +16°C° 0 mm 2 mps 652 mmHg 22%
    20:00 +14°C° 0 mm 2 mps 652 mmHg 24%
    21:00 +13°C° 0 mm 2 mps 653 mmHg 25%
    22:00 +13°C° 0 mm 2 mps 653 mmHg 27%
    23:00 +13°C° 0 mm 2 mps 653 mmHg 28%

    Day after tomorrow, 30 May, Saturday

    Time Temperature Precipitation Wind Pressure Humidity
    00:00 +12°C° 0 mm 2 mps 653 mmHg 30%
    01:00 +12°C° 0 mm 2 mps 652 mmHg 32%
    02:00 +10°C° 0 mm 2 mps 652 mmHg 34%
    03:00 +10°C° 0 mm 2 mps 652 mmHg 35%
    04:00 +9°C° 0 mm 2 mps 652 mmHg 36%
    05:00 +9°C° 0 mm 2 mps 652 mmHg 37%
    06:00 +10°C° 0 mm 2 mps 653 mmHg 36%
    07:00 +12°C° 0 mm 2 mps 654 mmHg 34%
    08:00 +13°C° 0 mm 2 mps 654 mmHg 33%
    09:00 +16°C° 0 mm 3 mps 655 mmHg 28%
    10:00 +19°C° 0 mm 3 mps 656 mmHg 24%
    11:00 +22°C° 0 mm 4 mps 657 mmHg 19%
    12:00 +22°C° 0 mm 4 mps 656 mmHg 18%
    13:00 +23°C° 0 mm 4 mps 656 mmHg 16%
    14:00 +25°C° 0 mm 4 mps 656 mmHg 15%
    15:00 +25°C° 0 mm 3 mps 655 mmHg 16%
    16:00 +24°C° 0 mm 3 mps 655 mmHg 17%
    17:00 +23°C° 0 mm 2 mps 655 mmHg 18%
    18:00 +20°C° 0 mm 2 mps 655 mmHg 20%
    19:00 +18°C° 0 mm 2 mps 655 mmHg 22%
    20:00 +16°C° 0 mm 2 mps 655 mmHg 24%
    21:00 +15°C° 0 mm 2 mps 655 mmHg 25%
    22:00 +14°C° 0 mm 2 mps 655 mmHg 26%
    23:00 +14°C° 0 mm 2 mps 655 mmHg 27%

    31 May, Sunday

    Time Temperature Precipitation Wind Pressure Humidity
    00:00 +13°C° 0 mm 2 mps 655 mmHg 28%
    01:00 +13°C° 0 mm 2 mps 654 mmHg 29%
    02:00 +12°C° 0 mm 2 mps 654 mmHg 30%
    03:00 +10°C° 0 mm 2 mps 654 mmHg 31%
    04:00 +10°C° 0 mm 3 mps 654 mmHg 33%
    05:00 +9°C° 0 mm 3 mps 654 mmHg 35%
    06:00 +10°C° 0 mm 3 mps 655 mmHg 36%
    07:00 +10°C° 0 mm 3 mps 655 mmHg 38%
    08:00 +11°C° 0 mm 3 mps 656 mmHg 39%
    09:00 +14°C° 0 mm 3 mps 657 mmHg 36%
    10:00 +17°C° 0 mm 4 mps 657 mmHg 33%
    11:00 +20°C° 0 mm 5 mps 658 mmHg 29%
    12:00 +21°C° 0 mm 4 mps 658 mmHg 27%
    13:00 +22°C° 0 mm 4 mps 657 mmHg 24%
    14:00 +25°C° 0 mm 4 mps 657 mmHg 22%
    15:00 +24°C° 0 mm 3 mps 657 mmHg 23%
    16:00 +22°C° 0 mm 3 mps 657 mmHg 25%
    17:00 +21°C° 0 mm 2 mps 656 mmHg 26%
    18:00 +19°C° 0 mm 2 mps 656 mmHg 31%
    19:00 +17°C° 0 mm 2 mps 656 mmHg 35%
    20:00 +15°C° 0 mm 2 mps 656 mmHg 39%
    21:00 +14°C° 0 mm 2 mps 656 mmHg 41%
    22:00 +14°C° 0 mm 1 mps 656 mmHg 43%
    23:00 +13°C° 0 mm 1 mps 656 mmHg 46%

    1 June, Monday

    Time Temperature Precipitation Wind Pressure Humidity
    00:00 +13°C° 0 mm 1 mps 656 mmHg 47%
    01:00 +12°C° 0 mm 1 mps 656 mmHg 49%
    02:00 +12°C° 0 mm 1 mps 656 mmHg 51%
    03:00 +12°C° 0 mm 1 mps 655 mmHg 52%
    04:00 +11°C° 0 mm 1 mps 655 mmHg 54%
    05:00 +10°C° 0 mm 2 mps 655 mmHg 55%
    06:00 +12°C° 0 mm 2 mps 656 mmHg 53%
    07:00 +12°C° 0 mm 2 mps 656 mmHg 51%
    08:00 +13°C° 0 mm 2 mps 657 mmHg 49%
    09:00 +16°C° 0 mm 2 mps 658 mmHg 42%
    10:00 +19°C° 0 mm 2 mps 658 mmHg 36%
    11:00 +21°C° 0 mm 2 mps 659 mmHg 30%
    12:00 +23°C° 0 mm 2 mps 658 mmHg 26%
    13:00 +24°C° 0 mm 2 mps 658 mmHg 23%
    14:00 +25°C° 0 mm 2 mps 658 mmHg 19%
    15:00 +25°C° 0 mm 2 mps 657 mmHg 20%
    16:00 +24°C° 0 mm 2 mps 657 mmHg 21%
    17:00 +23°C° 0 mm 2 mps 656 mmHg 22%
    18:00 +20°C° 0 mm 2 mps 656 mmHg 26%
    19:00 +17°C° 0 mm 2 mps 656 mmHg 30%
    20:00 +15°C° 0 mm 2 mps 655 mmHg 34%
    21:00 +14°C° 0 mm 1 mps 655 mmHg 37%
    22:00 +14°C° 0 mm 1 mps 655 mmHg 40%
    23:00 +13°C° 0 mm 1 mps 655 mmHg 43%

    2 June, Tuesday

    Time Temperature Precipitation Wind Pressure Humidity
    00:00 +13°C° 0 mm 1 mps 655 mmHg 47%
    01:00 +12°C° 0 mm 1 mps 655 mmHg 50%
    02:00 +11°C° 0 mm 0 mps 654 mmHg 54%
    03:00 +11°C° 0 mm 1 mps 654 mmHg 54%
    04:00 +11°C° 0 mm 1 mps 654 mmHg 55%
    05:00 +10°C° 0 mm 1 mps 654 mmHg 56%
    06:00 +12°C° 0 mm 1 mps 655 mmHg 50%
    07:00 +13°C° 0 mm 1 mps 656 mmHg 44%
    08:00 +14°C° 0 mm 1 mps 656 mmHg 38%
    09:00 +18°C° 0 mm 1 mps 657 mmHg 32%
    10:00 +20°C° 0 mm 2 mps 658 mmHg 26%
    11:00 +23°C° 0 mm 2 mps 658 mmHg 20%
    12:00 +24°C° 0 mm 2 mps 658 mmHg 18%
    13:00 +25°C° 0 mm 2 mps 657 mmHg 17%
    14:00 +26°C° 0 mm 2 mps 657 mmHg 15%
    15:00 +25°C° 0 mm 2 mps 656 mmHg 16%
    16:00 +24°C° 0 mm 2 mps 656 mmHg 17%
    17:00 +23°C° 0 mm 2 mps 655 mmHg 18%
    18:00 +20°C° 0 mm 2 mps 655 mmHg 22%
    19:00 +18°C° 0 mm 2 mps 654 mmHg 25%
    20:00 +16°C° 0 mm 2 mps 654 mmHg 28%
    21:00 +15°C° 0 mm 2 mps 654 mmHg 30%
    22:00 +14°C° 0 mm 1 mps 654 mmHg 32%
    23:00 +14°C° 0 mm 1 mps 654 mmHg 33%
    Show more